Regional Weather Roundup
Issued by NWS

Home | Current Version | Previous Version | Text Only | Print | Product List | Glossary Off
Versions: 1 2 3 4 5 6 7 8 9 10 11 12 13 14 15 16 17 18 19 20 21 22 23 24 25 26 27 28 29 30 31 32 33 34 35 36 37 38 39 40 41 42 43 44 45 46 47 48 49 50

000
ASUS43 KIND 210109
RWRIN

WEATHER ROUNDUP FOR INDIANA
NATIONAL WEATHER SERVICE INDIANAPOLIS IN
900 PM EDT THU JUL 20 2017

NOTE: "FAIR" INDICATES FEW OR NO CLOUDS BELOW 12,000 FEET WITH NO
SIGNIFICANT WEATHER AND/OR OBSTRUCTIONS TO VISIBILITY.

* - STATION DOES NOT REPORT WEATHER SUCH AS PRECIPITATION OR FOG.

+ - STATION NOT QUALITY CONTROLLED BY THE NATIONAL WEATHER SERVICE.
    USE DATA WITH CAUTION...ESPECIALLY DEWPOINT AND RELATIVE
    HUMIDITY OBSERVATIONS.

INZ001>003-010>013-019-020-210200-
NORTHWEST INDIANA

CITY           SKY/WX    TMP DP  RH WIND       PRES   REMARKS
GARY /AIRPORT/ PTCLDY    81  72  74 E5        29.97R
KNOX *+        CLOUDY    79  75  89 N3        29.96S
LA PORTE +     MOCLDY    78  73  83 N3        29.98S
MICHIGAN CITY+ CLOUDY    77  70  78 CALM      29.97S
MONTICELLO +   CLOUDY    83  80  90 CALM      29.95S
RENSSELAER +   CLOUDY    82  77  83 CALM      29.96S
VALPARAISO     CLOUDY    80  74  81 CALM      29.98R

$$

LMZ046-743>745-210200-
SOUTHERN LAKE MICHIGAN

STATION/POSITION TIME  TEMP    WIND        PRES    WAVE
                       AIR SEA DIR/SP/G            HT
                 (UTC) (F)     (DEG/KT/KT) (MB)    (FT)
BURNS HARBOR     0040   76      80/  7/  8 1014.9S
MICHIGAN CITY    0040   75      60/  7/  7   N/A
5NW MICH CITY    0100   75 74  100/  4/  4   N/A     1

$$

INZ004-005-014>016-021>024-210200-
NORTH CENTRAL INDIANA

CITY           SKY/WX    TMP DP  RH WIND       PRES   REMARKS
ELKHART        CLEAR     81  70  69 NW6       29.96S
GOSHEN         CLOUDY    82  72  71 NW6       29.96S
LOGANSPORT +   CLOUDY    81  75  83 CALM      29.97S
PERU/GRISSOM   PTCLDY    83  75  76 NW3       29.96S
ROCHESTER +    CLEAR     84  77  79 W3        29.97S
SOUTH BEND     MOCLDY    80  72  76 N3        29.97S
WARSAW +       PTCLDY    79  75  89 CALM      29.97S

$$

INZ006>009-017-018-025>027-210200-
NORTHEAST INDIANA

CITY           SKY/WX    TMP DP  RH WIND       PRES   REMARKS
ANGOLA *+      CLEAR     81  73  78 CALM      29.97S
AUBURN +       PTCLDY    81  72  74 CALM      29.98S
FORT WAYNE     LGT RAIN  83  74  74 CALM      29.97S
HUNTINGTON +   CLOUDY    82  75  80 SW3       29.97S
KENDALLVILLE + CLOUDY   N/A N/A N/A SW3       29.97S

$$

INZ028-029-035-036-043>045-051>053-210200-
WEST CENTRAL INDIANA

CITY           SKY/WX    TMP DP  RH WIND       PRES   REMARKS
GREENCASTLE +  CLEAR     82  77  83 CALM      29.99S
LAFAYETTE      MOCLDY    84  80  88 CALM      29.94S HX  97
TERRE HAUTE    CLEAR     85  77  77 S5        29.96F HX  95

$$

INZ030>032-037>040-046>048-054>057-064-065-210200-
CENTRAL INDIANA

CITY           SKY/WX    TMP DP  RH WIND       PRES   REMARKS
CP ATTERBURY + CLEAR     82  75  78 CALM      29.99S
COLUMBUS       CLEAR     82  73  74 SW6       29.99S
FRANKFORT +    CLOUDY    84  80  88 CALM      29.99F HX  98
GREENWOOD *+   CLEAR     84  75  74 SW5       29.99F
INDIANAPOLIS   MOCLDY    84  78  82 S7        29.97S HX  95
-EAGLE CREEK   CLEAR     85  75  72 SW3       29.97S
KOKOMO +       MOCLDY    84  77  79 W3        29.98S
MARION +       CLOUDY    82  75  78 CALM      29.98F
MT COMFORT *+  CLEAR     82  73  74 SW6       29.99S
SHELBYVILLE    CLEAR     84  77  79 SW5       29.98S
ZIONSVILLE +   PTCLDY    82  77  86 CALM      29.99S

$$

INZ033-034-041-042-049-050-058-059-210200-
EAST CENTRAL INDIANA

CITY           SKY/WX    TMP DP  RH WIND       PRES   REMARKS
MUNCIE         PTCLDY    83  76  79 VRB3      29.99S
RICHMOND +     PTCLDY    77  75  94 SW5       30.01S

$$

INZ060-061-067>069-081>083-085>088-210200-
SOUTHWEST INDIANA

CITY           SKY/WX    TMP DP  RH WIND       PRES   REMARKS
EVANSVILLE     PTCLDY    88  72  58 W6        29.99S
HUNTINGBURG *+ CLEAR     84  76  76 CALM      30.00S

$$

INZ062-063-066-070>080-084-089>092-210200-
SOUTH CENTRAL AND SOUTHEAST INDIANA

CITY           SKY/WX    TMP DP  RH WIND       PRES   REMARKS
BEDFORD +      CLOUDY    84  73  70 CALM      29.99
BLOOMINGTON    CLEAR     83  76  79 S3        29.99S
MADISON *+     CLEAR     82  72  69 CALM      30.03S
NORTH VERNON + CLEAR     82  73  74 SW6       30.01R
SEYMOUR +      PTCLDY    82  75  78 S5        29.99S

$$





USA.gov is the U.S. government's official web portal to all federal, state and local government web resources and services.